Wind_Speed
17 19 21 22 23 24 25 26 28 31 34 37 39 41 41 40 41 41 41 41 40 39 39 39 38 36 35 34 33 33 35 37 37 37 38 39 42 43 43 42 39 36 33 31
20 22 22 22 22 23 24 24 25 25 27 29 30 31 32 32 33 35 36 36 36 36 38 39 38 38 36 35 34 35 36 37 38 38 38 41 43 45 45 44 43 40 37 35
22 24 24 24 25 25 26 26 27 27 26 28 28 28 29 30 31 31 32 32 33 34 35 37 39 37 35 34 34 35 36 38 40 41 42 42 43 44 44 43 42 39 36 33
22 23 24 25 25 26 27 28 29 28 27 28 29 31 30 32 32 32 33 33 34 36 37 39 38 36 35 35 36 37 38 39 41 42 43 43 42 42 41 38 37 36 34 32
19 21 22 23 24 26 27 28 29 29 29 29 30 33 33 33 35 36 37 37 38 40 41 42 42 42 42 42 42 42 42 42 43 43 43 42 40 39 38 36 35 34 32 30
16 18 19 20 21 23 25 26 28 28 28 28 28 31 32 32 35 39 41 43 44 45 47 48 48 48 49 49 49 48 47 46 45 45 43 40 39 37 35 33 33 32 32 31
13 14 15 16 18 19 22 23 24 24 23 23 23 26 26 26 29 34 40 44 47 50 52 54 55 55 55 56 56 55 54 51 50 49 47 42 39 36 33 32 32 33 33 34
12 13 13 14 15 17 18 20 21 23 21 19 19 21 20 22 25 29 33 38 42 46 50 54 56 58 58 59 59 58 57 54 54 50 45 42 40 38 35 35 34 34 35 37
12 14 16 16 17 18 18 19 19 21 20 18 16 17 19 23 26 28 31 34 38 42 46 50 54 57 58 59 59 58 55 54 50 48 44 43 41 39 37 36 35 36 37 38
12 12 13 14 14 15 15 16 17 19 22 21 18 18 20 24 26 29 32 35 38 40 44 47 51 54 56 57 58 57 55 53 51 47 43 42 40 37 36 36 36 36 37 37
10 10 9 12 13 15 16 17 18 20 22 25 24 20 23 26 28 31 34 36 38 40 43 45 48 50 52 53 53 53 52 50 47 45 40 39 39 36 34 35 35 35 36 36
11 12 12 13 15 17 18 19 20 21 23 25 28 26 27 29 31 33 35 37 39 40 41 42 44 45 45 44 44 44 45 44 42 42 39 37 36 35 34 36 36 35 35 34
16 16 17 17 19 20 21 21 23 24 25 26 28 28 30 32 33 34 36 37 39 39 40 40 40 39 37 35 34 34 36 36 35 35 35 34 32 32 32 34 34 33 33 33
22 21 21 22 23 24 24 25 26 27 28 29 29 29 29 32 33 34 35 37 38 38 38 36 33 30 27 25 25 26 28 29 30 30 30 30 30 30 31 32 33 32 32 32
25 25 24 25 26 28 27 27 29 30 30 31 30 30 30 30 31 32 33 34 35 35 34 30 27 22 20 19 18 21 23 25 26 27 26 26 27 28 29 30 31 31 30 30
25 26 25 25 26 30 29 29 32 33 32 32 31 30 30 30 30 30 31 31 31 30 29 25 22 20 17 16 18 19 20 21 23 24 24 25 26 27 28 28 29 28 28 28
22 23 24 24 25 29 28 28 31 32 31 30 29 29 29 29 29 29 28 27 27 26 25 22 20 18 17 16 15 16 18 20 21 22 23 24 25 26 27 27 27 27 27 27
21 22 24 25 25 26 24 26 29 30 29 29 29 29 29 29 28 27 26 25 24 23 21 19 17 16 16 15 15 15 17 18 20 20 21 22 23 24 25 25 24 25 24 24
22 23 24 25 25 24 20 24 27 29 27 28 30 31 31 29 27 26 24 22 21 20 19 17 15 14 14 14 14 14 15 16 17 18 18 19 20 21 21 21 21 21 20 20
24 24 25 26 28 26 22 24 26 27 25 26 28 29 30 29 27 25 23 21 19 18 16 15 14 13 12 12 12 12 12 13 14 14 15 16 17 17 17 17 16 16 15 15
25 26 27 28 29 27 26 26 26 26 26 27 27 28 28 29 27 24 22 19 17 16 15 14 13 12 11 10 10 10 10 11 12 12 12 13 13 13 13 12 12 12 12 13
26 27 28 28 28 27 28 28 27 27 27 27 27 27 28 28 27 25 22 19 17 14 13 13 12 11 10 9 9 9 9 9 10 9 9 10 10 10 10 10 10 11 11 11
27 29 31 31 29 29 29 30 30 29 28 28 28 27 28 27 27 25 23 21 18 15 13 13 12 11 10 9 9 8 8 8 7 7 7 8 8 9 10 10 10 11 11 11
27 32 33 32 30 31 31 32 32 32 31 30 29 28 27 27 27 27 25 22 19 17 15 14 13 12 11 10 9 9 8 7 7 6 6 6 7 8 9 10 10 11 12 12
31 36 36 33 31 32 31 32 33 33 33 31 30 29 28 27 27 27 26 25 23 20 18 17 15 13 12 12 11 9 9 8 7 7 7 7 7 8 9 10 11 12 12 13
35 38 39 36 34 34 32 33 33 34 33 32 30 29 28 27 27 28 27 27 26 23 21 20 19 17 16 15 13 12 11 10 9 9 9 9 9 10 10 11 12 12 13 13
Wind_Direction
241 243 244 246 247 249 251 251 251 250 250 252 253 255 258 260 261 262 264 265 265 264 262 261 259 259 260 260 261 265 267 269 269 268 267 269 269 268 268 269 269 269 269 272
250 251 253 255 257 258 260 260 259 257 258 259 259 260 262 262 262 262 262 261 260 260 260 259 258 256 256 256 259 264 269 272 272 271 270 268 268 268 267 264 265 266 268 270
254 256 258 259 260 261 262 264 264 263 263 265 266 264 265 265 264 263 261 261 260 261 260 259 257 254 255 260 266 269 271 271 272 271 269 268 267 271 270 266 264 265 268 269
255 258 259 260 262 263 265 267 268 268 267 266 267 266 262 263 263 262 261 261 260 261 261 261 260 262 268 271 273 273 272 272 271 270 267 266 266 268 270 267 266 267 271 275
255 257 259 260 261 264 266 268 269 270 270 268 266 266 262 259 259 261 262 262 263 263 265 266 267 270 271 274 274 274 274 272 271 269 265 263 265 267 268 268 270 274 276 278
257 257 258 259 260 262 266 267 269 270 272 271 269 267 265 261 259 259 262 264 266 268 269 270 270 271 273 274 275 276 274 272 271 269 268 268 266 267 269 271 272 273 276 278
265 264 263 263 264 266 269 273 275 275 275 278 278 274 275 273 267 264 264 265 268 270 272 273 273 273 272 273 274 274 274 272 271 271 270 270 267 267 269 270 271 272 275 277
280 278 276 274 274 275 278 281 282 284 284 282 280 284 287 284 278 275 273 273 273 274 274 275 274 274 274 274 274 274 274 274 274 272 269 266 263 263 264 266 268 272 275 276
289 282 281 280 281 282 284 284 287 289 292 293 290 289 288 286 285 285 285 283 282 280 279 277 276 275 274 273 272 272 272 273 273 271 268 264 263 262 261 263 265 270 273 275
294 290 285 285 286 288 291 294 293 294 298 298 296 297 295 290 292 295 297 297 295 291 287 283 280 278 275 273 271 269 269 270 271 269 269 265 262 261 260 262 264 268 272 275
293 288 282 283 284 289 291 294 295 295 297 299 300 304 300 299 303 307 309 308 306 302 298 292 288 284 280 276 271 268 266 266 266 265 266 264 261 258 258 261 264 268 270 274
293 288 286 285 285 286 287 289 291 292 294 297 300 307 304 306 310 313 314 314 312 308 303 298 293 289 283 277 272 267 263 261 261 260 260 261 258 256 258 261 263 265 268 271
296 292 289 286 286 285 285 287 288 290 291 293 297 304 306 308 312 315 318 318 317 313 309 304 298 291 284 273 266 261 257 254 254 255 255 256 256 255 256 258 259 263 267 270
295 292 291 290 289 288 287 288 288 289 290 291 296 299 302 306 312 316 319 321 320 318 315 310 303 295 283 269 259 252 249 247 245 247 247 249 251 252 254 256 260 264 267 271
295 293 290 288 286 285 286 288 288 288 289 291 294 296 300 304 310 315 319 322 323 322 318 314 306 296 282 268 255 248 245 244 242 242 242 245 248 252 256 259 262 265 267 270
301 298 295 292 288 284 286 286 285 286 287 289 290 293 296 302 307 313 319 323 324 325 322 318 311 299 288 276 263 254 247 245 245 245 246 249 252 255 259 262 264 266 268 271
311 306 303 303 297 295 297 291 285 284 286 287 288 289 292 298 304 310 317 322 324 325 323 318 312 303 294 288 276 265 256 252 251 251 252 254 256 258 261 263 265 267 269 271
315 310 308 308 305 306 311 299 293 288 285 285 285 286 289 294 300 305 312 318 322 324 322 318 312 306 297 291 288 278 269 263 260 258 259 260 261 262 263 264 265 268 270 271
317 315 314 314 313 316 315 303 298 295 293 285 282 282 285 288 293 299 305 311 317 322 323 319 312 308 304 299 293 285 278 271 268 265 264 264 263 264 265 264 266 268 269 272
318 318 318 318 317 322 321 307 304 302 298 286 284 285 283 284 285 289 295 303 310 317 320 320 316 308 306 303 297 292 283 279 275 271 269 266 263 263 265 265 266 265 269 272
315 316 316 316 316 322 318 313 312 307 304 293 287 283 282 280 281 282 285 293 301 309 314 318 318 317 315 313 309 301 293 287 281 276 271 266 261 260 260 259 260 261 266 272
311 311 311 311 314 317 313 313 313 310 305 300 292 285 282 279 276 275 277 282 289 297 304 311 316 317 316 314 313 309 302 295 288 279 272 263 257 253 251 253 256 261 267 274
309 307 306 310 313 311 310 310 311 310 309 306 298 292 287 279 274 273 271 273 278 283 289 298 305 311 314 312 311 311 308 305 298 285 274 264 257 252 252 254 257 263 269 275
302 296 300 307 310 307 306 307 307 307 307 308 303 297 290 281 274 270 269 267 270 272 276 284 292 297 302 307 308 307 308 307 303 295 283 274 265 258 255 256 261 266 271 277
297 298 304 307 305 301 302 301 301 302 304 304 302 297 292 284 275 270 268 265 265 266 267 271 275 282 287 290 293 294 294 293 291 288 284 278 272 268 265 267 269 272 275 279
292 299 304 305 301 298 297 294 294 296 297 299 298 297 292 285 278 270 266 264 262 261 262 264 267 270 274 275 277 279 280 280 281 282 280 279 277 276 275 275 276 278 281 284
Height
5851 5853 5853 5854 5856 5857 5858 5860 5861 5863 5863 5864 5865 5866 5867 5868 5869 5869 5870 5870 5871 5872 5872 5872 5872 5872 5872 5872 5871 5871 5871 5870 5869 5869 5868 5868 5867 5867 5866 5866 5865 5865 5865 5865
5848 5848 5849 5851 5852 5853 5853 5855 5856 5857 5857 5858 5859 5860 5860 5860 5860 5861 5861 5861 5862 5862 5862 5861 5861 5862 5862 5861 5862 5862 5862 5860 5860 5859 5858 5858 5857 5856 5856 5855 5855 5855 5855 5855
5843 5844 5845 5846 5847 5848 5848 5849 5850 5851 5852 5852 5852 5853 5853 5852 5852 5852 5852 5853 5853 5853 5853 5852 5850 5849 5848 5850 5851 5852 5852 5851 5850 5850 5848 5847 5846 5845 5843 5842 5844 5845 5845 5845
5839 5839 5840 5841 5842 5843 5843 5843 5843 5844 5845 5846 5846 5845 5846 5845 5844 5844 5844 5845 5845 5844 5844 5842 5840 5838 5839 5840 5841 5841 5841 5840 5840 5839 5837 5836 5835 5834 5833 5833 5833 5835 5835 5835
5835 5835 5836 5837 5837 5837 5837 5837 5837 5837 5838 5838 5838 5837 5838 5838 5837 5836 5836 5836 5836 5835 5834 5833 5833 5832 5832 5831 5831 5831 5830 5830 5829 5828 5826 5823 5824 5824 5823 5823 5824 5825 5826 5827
5832 5832 5832 5832 5833 5832 5832 5832 5831 5831 5831 5831 5830 5829 5829 5830 5829 5828 5827 5827 5826 5825 5825 5824 5824 5823 5823 5822 5822 5821 5820 5819 5817 5816 5814 5813 5814 5814 5814 5814 5815 5817 5818 5819
5829 5829 5829 5829 5829 5829 5828 5828 5827 5826 5826 5825 5824 5823 5824 5823 5822 5821 5820 5819 5817 5816 5814 5813 5812 5812 5812 5811 5810 5810 5809 5806 5806 5805 5804 5804 5804 5804 5805 5806 5807 5809 5810 5810
5828 5828 5827 5826 5826 5825 5825 5824 5824 5822 5821 5821 5820 5818 5819 5817 5815 5814 5813 5811 5809 5807 5804 5802 5800 5799 5798 5797 5796 5796 5796 5795 5794 5792 5792 5793 5794 5795 5796 5798 5799 5800 5801 5801
5825 5825 5824 5823 5823 5822 5821 5821 5820 5818 5817 5816 5816 5815 5814 5811 5809 5807 5805 5803 5800 5797 5793 5790 5787 5785 5783 5782 5782 5782 5783 5783 5782 5782 5782 5782 5783 5785 5787 5788 5789 5791 5791 5792
5823 5822 5821 5820 5819 5819 5818 5817 5816 5814 5811 5810 5811 5810 5809 5805 5802 5800 5797 5793 5789 5786 5781 5777 5773 5770 5768 5767 5767 5767 5768 5770 5770 5770 5770 5771 5773 5774 5776 5778 5780 5781 5782 5782
5820 5819 5819 5817 5816 5815 5814 5813 5811 5809 5807 5804 5803 5807 5802 5797 5794 5791 5787 5782 5777 5773 5767 5762 5758 5754 5751 5750 5750 5751 5753 5756 5757 5758 5759 5760 5762 5764 5766 5768 5770 5771 5772 5773
5816 5816 5814 5814 5812 5810 5809 5808 5806 5805 5802 5799 5796 5799 5793 5789 5785 5782 5778 5772 5766 5760 5755 5749 5744 5739 5736 5735 5735 5737 5739 5742 5745 5747 5748 5750 5752 5755 5757 5759 5761 5762 5763 5764
5813 5812 5810 5809 5809 5806 5804 5802 5800 5798 5796 5793 5790 5791 5785 5780 5777 5773 5768 5762 5756 5750 5743 5737 5731 5726 5722 5722 5723 5725 5727 5730 5733 5736 5738 5741 5744 5746 5748 5750 5752 5753 5755 5755
5808 5807 5806 5805 5802 5799 5798 5796 5793 5791 5789 5786 5784 5781 5779 5773 5769 5765 5760 5754 5747 5741 5734 5727 5721 5716 5714 5713 5714 5716 5718 5721 5724 5727 5730 5733 5735 5738 5740 5741 5743 5745 5746 5746
5802 5801 5799 5798 5795 5792 5791 5790 5786 5784 5781 5778 5777 5773 5770 5767 5763 5759 5753 5747 5741 5734 5728 5722 5717 5712 5710 5708 5709 5710 5712 5714 5717 5720 5722 5725 5728 5730 5732 5734 5735 5736 5737 5738
5795 5793 5792 5791 5788 5784 5784 5783 5779 5775 5773 5770 5768 5766 5762 5759 5756 5752 5747 5742 5736 5730 5724 5718 5714 5710 5708 5706 5706 5706 5708 5710 5712 5714 5716 5718 5721 5723 5724 5726 5727 5728 5729 5729
5790 5787 5785 5783 5781 5777 5776 5774 5769 5767 5764 5762 5760 5758 5755 5753 5749 5746 5742 5737 5732 5726 5721 5716 5712 5709 5707 5705 5704 5704 5704 5706 5707 5709 5710 5712 5714 5715 5717 5718 5720 5721 5721 5722
5786 5783 5779 5777 5774 5770 5772 5764 5761 5757 5756 5754 5752 5750 5747 5746 5743 5740 5737 5733 5728 5724 5719 5714 5710 5707 5705 5703 5702 5701 5701 5702 5702 5704 5705 5706 5708 5709 5710 5712 5713 5714 5714 5715
5782 5779 5775 5771 5767 5765 5764 5758 5753 5750 5749 5747 5743 5742 5740 5738 5737 5734 5731 5728 5725 5721 5716 5712 5708 5705 5703 5701 5699 5698 5698 5698 5698 5699 5700 5701 5702 5704 5705 5706 5707 5707 5708 5709
5778 5775 5771 5766 5761 5759 5759 5753 5747 5745 5743 5740 5736 5735 5733 5731 5730 5729 5726 5724 5720 5717 5714 5710 5706 5703 5701 5699 5697 5696 5695 5695 5695 5695 5696 5697 5698 5699 5700 5701 5702 5702 5703 5704
5774 5770 5766 5761 5756 5753 5751 5746 5742 5739 5737 5733 5730 5727 5725 5723 5722 5722 5720 5718 5716 5713 5710 5707 5704 5701 5698 5696 5695 5693 5693 5692 5692 5692 5692 5693 5693 5694 5695 5697 5697 5698 5699 5699
5769 5764 5760 5756 5752 5750 5744 5740 5737 5734 5729 5725 5722 5720 5717 5716 5714 5713 5712 5712 5710 5709 5706 5704 5701 5698 5696 5694 5693 5691 5691 5690 5689 5689 5689 5690 5690 5691 5692 5693 5694 5695 5695 5695
5763 5758 5753 5750 5747 5742 5737 5733 5730 5726 5722 5718 5715 5712 5710 5708 5706 5705 5705 5705 5704 5703 5702 5700 5698 5696 5694 5692 5691 5690 5689 5688 5687 5687 5687 5687 5687 5688 5689 5690 5691 5691 5691 5692
5757 5750 5745 5742 5739 5734 5730 5726 5722 5718 5714 5711 5707 5704 5701 5699 5698 5697 5697 5697 5697 5697 5696 5695 5694 5692 5691 5690 5688 5687 5686 5686 5685 5685 5685 5685 5685 5686 5686 5687 5687 5688 5688 5688
5748 5741 5737 5734 5731 5726 5723 5718 5713 5709 5706 5703 5700 5696 5693 5691 5690 5689 5689 5689 5689 5690 5690 5689 5689 5688 5687 5686 5685 5685 5684 5684 5683 5683 5683 5683 5683 5683 5684 5684 5684 5684 5684 5684
5738 5733 5729 5726 5722 5717 5714 5709 5704 5700 5697 5694 5691 5688 5685 5683 5681 5680 5680 5680 5681 5682 5682 5682 5682 5682 5682 5682 5681 5681 5681 5681 5680 5680 5680 5680 5680 5680 5680 5680 5680 5680 5680 5679